Regional Weather Roundup
Issued by NWS

Home | Current Version | Previous Version | Graphics & Text | Print | Product List | Glossary On
Versions: 1 2 3 4 5 6 7 8 9 10 11 12 13 14 15 16 17 18 19 20 21 22 23 24 25 26 27 28 29 30 31 32 33 34 35 36 37 38 39 40 41 42 43 44 45 46 47 48 49 50
000
ASUS45 KABQ 251010
RWRNM
NEW MEXICO REGIONAL WEATHER ROUNDUP
NATIONAL WEATHER SERVICE ALBUQUERQUE NM
400 AM MDT THU AUG 25 2016

NOTE: "FAIR" MEANS FEW OR NO CLOUDS BELOW 12,000 FEET AGL WITH NO
       SIGNIFICANT WEATHER OR OBSTRUCTIONS TO VISION.

      THIS PRODUCT IS RELEASED AS TWO VERSIONS.  ONE VERSION NEAR
      THE TOP OF THE HOUR CONTAINING PRELIMINARY DATA FROM ALBUQUERQUE
      AND OTHER STATIONS.  A FINAL VERSION WITH ADDITIONAL DATA IS
      ISSUED ABOUT 10 MINUTES AFTER THE HOUR.

NMZ501-503-504-510>518-251100-
NORTHWEST PLATEAU/NORTHCENTRAL MOUNTAINS

CITY           SKY/WX    TMP DP  RH WIND       PRES   REMARKS
FARMINGTON     FAIR      55  47  74 E7        30.21S
LOS ALAMOS     MOCLDY    53  44  71 CALM      30.33S
SANTA FE       FAIR      54  48  80 N6        30.28S
TAOS           FAIR      46  39  76 CALM      30.34R
ANGEL FIRE     CLOUDY    43  42  98 CALM      30.41S

$$
NMZ402-403-502-505>509-251100-
WESTCENTRAL MOUNTAINS/SOUTHWEST MOUNTAINS

CITY           SKY/WX    TMP DP  RH WIND       PRES   REMARKS
GALLUP         FAIR      49  43  80 E3        30.28R
GRANTS         FAIR      47  43  85 CALM      30.30F
SILVER CITY    FAIR      59  50  71 N7        30.20R

$$
NMZ407-409-411-412-251100-
SOUTHERN DESERTS

CITY           SKY/WX    TMP DP  RH WIND       PRES   REMARKS
DEMING         CLOUDY    68  52  56 NW3       30.13S
LAS CRUCES     FAIR      68  52  56 W3        30.13S
HOLLOMAN AFB   FAIR      64  56  77 NE3       30.09F
ALAMOGORDO     FAIR      64  54  68 N7        30.11F
T OR C         FAIR      65  48  54 NW9       30.16F

$$
NMZ519>523-251100-
CENTRAL VALLEYS/CENTRAL HIGHLANDS

CITY           SKY/WX    TMP DP  RH WIND       PRES   REMARKS
ALBUQUERQUE    FAIR      61  49  64 N6        30.23S
DOUBLE EAGLE   FAIR      55  45  68 N6        30.26F
MORIARTY ARPT  FAIR      48  45  89 CALM      30.30S
CLINES CORNERS FAIR      50  44  80 NE6       30.33S
BELEN          FAIR      58  48  71 N5        30.22S
SOCORRO        FAIR      58  49  73 CALM      30.18F

$$
NMZ524>526-539-540-251100-
SOUTHCENTRAL MOUNTAINS

CITY           SKY/WX    TMP DP  RH WIND       PRES   REMARKS
RUIDOSO          N/A     54  46  76 W10       30.30F

$$
NMZ527>531-251100-
NORTHEAST HIGHLANDS/NORTHEAST PLAINS

CITY           SKY/WX    TMP DP  RH WIND       PRES   REMARKS
LAS VEGAS      FAIR      46  44  93 NE5       30.32S
RATON          FAIR      51  46  83 NE3       30.28F
CLAYTON        FAIR      57  54  89 NW12      30.20F

$$
NMZ532>537-251100-
EASTCENTRAL PLAINS

CITY           SKY/WX    TMP DP  RH WIND       PRES   REMARKS
TUCUMCARI      FAIR      60  58  92 N5        30.17S
CANNON AFB     FAIR      58  56  94 NE7       30.16S
CLOVIS AIRPORT FAIR      57  52  82 N3        30.16S

$$
NMZ028-029-538-251100-
SOUTHEAST PLAINS

CITY           SKY/WX    TMP DP  RH WIND       PRES   REMARKS
ROSWELL        CLOUDY    66  62  87 N6        30.11S
ARTESIA        FAIR      64  64 100 S3        30.10S
CARLSBAD       FAIR      65  63  93 SE6       30.07F
HOBBS          FAIR      63  63 100 CALM      30.13S


$$




USA.gov is the U.S. government's official web portal to all federal, state and local government web resources and services.